Location: Samoth
(37.3328°N, 88.7876°W)
Time: 21:45:29
(UTC+00:00)

Envisat - Pass Details

Date: 24 September 2021
Orbit: 764 x 766 km, 98.2° (Epoch: 15 October)

Event Time Altitude Azimuth Distance (km) Brightness Sun altitude
Rises 09:38:33 0° 38° (NE) 3,235 7.1 -25.4°
Reaches altitude 10° 09:42:37 10° 70° (ENE) 2,302 6.5 -24.7°
Maximum altitude 09:44:21 12° 90° (E) 2,184 6.3 -24.4°
Drops below altitude 10° 09:46:05 10° 110° (ESE) 2,296 6.1 -24.0°
Sets 09:50:06 0° 143° (SE) 3,215 6.5 -23.3°
